Погода в Коккола

Финляндия     63°49′52″N   23°08′32″E
темп.,
°C
ветер,
м/с
пор.,
м/с
влажн.,
%
обл.,
%
осадки,
мм/ч
давл.,
гПа
погр.,
м
6 марта, сб
сб623:00−7ююз388994 0.0 1013205
02:00−4ююз4128797 0.0 1010503
05:00−3ююз51288100 0.0 1004655
08:00−2ююз51296100 0.8 999757
11:00+1зюз51297100 2.1 993791
14:00+2з71482100 2.1 9891085
17:00−1сз91560100 0.3 9881533
20:00−5зсз5136667 0.3 989548
7 марта, вс
вс723:00−6сз71366100 0.1 986957
02:00−8зсз7149278 0.4 9851165
05:00−5с91691100 3.0 9861130
08:00−6с101787100 3.9 9901138
11:00−6с91485100 0.3 9961022
14:00−5ссв71382100 0.4 10021078
17:00−6с61182100 0.1 1006842
20:00−8ссв41185100 0.1 1010498
8 марта, пн
пн823:00−9с379099 0.0 1012252
02:00−11с229268 0.0 101436
05:00−9ссз279777 0.1 1015294
08:00−10с379579 0.1 1016270
11:00−8с238690 0.0 1017301
14:00−6сз117887 0.0 1018411
17:00−7ююз1287100 0.0 1017154
20:00−8ююв2394100 0.2 1015126
9 марта, вт
вт923:00−7юв3794100 0.9 1014377
02:00−7вюв4894100 2.1 1014468
05:00−8в4891100 0.3 1014416
08:00−10в499089 0.3 1016351
11:00−8вюв378286 0.0 1019418
14:00−6в357458 0.0 1022570
17:00−8в24840 0.0 1022335
20:00−13юв24930 0.0 102482
10 марта, ср
ср1023:00−15ююв24890 0.0 102589
02:00−17ююв26867 0.0 1025125
05:00−18ю268410 0.0 1025132
08:00−18ююв38805 0.0 1024197
11:00−13ю37720 0.0 1024274
14:00−9ю47710 0.0 1022426
17:00−9ю38800 0.0 1020530
20:00−11ююв413877 0.0 1018424